Regional Weather Roundup
Issued by NWS Newport/Morehead, NC

Current Version | Previous Version | Text Only | Print | Product List | Glossary On
Versions: 1 2 3 4 5 6 7 8 9 10 11 12 13 14 15 16 17 18 19 20 21 22 23 24 25 26 27 28 29 30 31 32 33 34 35 36 37 38 39 40 41 42 43 44 45 46 47 48 49 50
000
ASUS42 KMHX 172125
RWRMHX
WEATHER ROUNDUP FOR EASTERN NORTH CAROLINA
NATIONAL WEATHER SERVICE NEWPORT/MOREHEAD CITY NC
500 PM EDT TUE OCT 17 2017

NOTE: "FAIR" INDICATES FEW OR NO CLOUDS BELOW 12,000 FEET
WITH NO SIGNIFICANT WEATHER AND/OR OBSTRUCTIONS TO VISIBILITY

NCZ015>017-031-032-045>047-102-103-172200-
NORTH COAST

CITY           SKY/WX    TMP DP  RH WIND       PRES   REMARKS
EDENTON        SUNNY     62  42  48 NE10      30.29S
ELIZABETH CITY SUNNY     60  44  55 N13       30.29S
KITTY HAWK     MOCLDY    59  44  58 N8        30.26R
MANTEO         PTSUNNY  N/A N/A N/A NE12G17   30.27S

$$

NCZ045>047-081-094-103-104-172200-
CENTRAL COAST

CITY           SKY/WX    TMP DP  RH WIND       PRES   REMARKS
FRISCO         CLOUDY    62  50  64 NE10G22   30.24S

$$

NCZ095-097-098-100-101-172200-
SOUTHERN COAST

CITY           SKY/WX    TMP DP  RH WIND       PRES   REMARKS
BEAUFORT       CLOUDY    60  43  53 N12       30.26R
CEDAR ISLAND   NOT AVBL
JACKSONVILLE   MOSUNNY   61  44  53 NE9       30.26S
PINEY ISLAND     N/A    N/A N/A N/A N12G22    30.26S
WILMINGTON     CLOUDY    62  44  51 NE12      30.25F


$$

NCZ011>013-027>030-043-044-078>080-089-090>093-098-172200-
COASTAL PLAIN

CITY           SKY/WX    TMP DP  RH WIND       PRES   REMARKS
AHOSKIE        SUNNY     60  39  45 N3        30.29S
CLINTON        SUNNY     65  41  41 N6        30.27F
ELIZABETHTOWN  NOT AVBL
GOLDSBORO      SUNNY     65  38  37 N10       30.25F
GREENVILLE     SUNNY     64  39  39 N10       30.28S
HAVELOCK       CLOUDY    61  45  55 NE10      30.27S
KENANSVILLE    SUNNY     64  39  39 N6        30.26F
KINSTON        SUNNY     64  37  36 N12       30.27S
NEW BERN       CLOUDY    62  46  55 NE7       30.27F
RICHLANDS      MOSUNNY   63  43  48 NE7       30.26F
ROCKY MOUNT    SUNNY     64  39  39 NE10      30.28F
WASHINGTON     SUNNY     63  43  47 NE7       30.27S
WHITEVILLE     SUNNY     65  41  41 N5        30.24F

$$

AMZ130-135-150-152-154-156-158-170-250-252-270-ANZ085-086-088-633-658-670-172200-
MARINE OBSERVATIONS

STATION/POSITION TIME  TEMP    WIND        PRES    WAVE   SWELL
                       AIR SEA DIR/SP/G            HT/PER HT/PER
                 (UTC) (F)     (DEG/KT/KT) (MB)    (FT/S) (FT/S)
CHESAPEAKE LIGHT NOT AVBL
64 E VA BEACH    2050   60 67   10/ 16/ 21 1024.7    6/ 8   3/ 8
DUCK             2100   60 69  360/ 15/ 19 1024.3
2 E DUCK         2100      71                N/A     6/ 7   2/11
OREGON INLET     2100   61 66  360/  9/ 16 1024.4
13E OREGON INLT  2048      71                N/A     6/ 8   5/ 8
HATTERAS CG      2100   62 69   30/ 17/ 22 1023.8
DIAMOND BUOY     2050   65 81   20/ 19/ 25 1022.7    8/10   5/10
CAPE LOOKOUT     2100   60      20/ 15/ 19 1024.2
BEAUFORT LAB     2100   60 71   20/ 10/ 14 1025.0
30 SE NEW RVR IN 2108   64      30/ 17/ 25 1023.3
30 SE NEW RVR IN NOT AVBL
27 SE WRIGHTSVLE 2108   65 77   60/ 17/ 25 1023.0
5 SE WRIGHTSVLE  2108   63 75   30/ 17/ 25 1023.8
225 S CAPE HAT   2050   74 80   40/ 27/ 33 1016.9   12/10
41 SE CHARLESTON 2110   69 80   30/ 23/ 27 1021.5

$$



USA.gov is the U.S. government's official web portal to all federal, state and local government web resources and services.